Prague, Czech Republic

2:07 AM CEST on March 30, 2017 (GMT +0200)
Prague-Ruzyne Airport

Weather History for LKPR - February, 2013

Change the Weather History Date:

Sunday, February 10, 2013

  Actual Average Record
Temperature  
Mean Temperature 26 °F -  
Max Temperature 31 °F 40 °F 53 °F (1998)
Min Temperature 21 °F 26 °F 0 °F (2012)
Degree Days  
Heating Degree Days 39    
Moisture  
Dew Point 20 °F    
Average Humidity 76    
Maximum Humidity 93    
Minimum Humidity 54    
Precipitation  
Precipitation 0.00 in 0.03 in - ()
Sea Level Pressure  
Sea Level Pressure 29.96 in    
Wind  
Wind Speed 4 mph ()    
Max Wind Speed 12 mph    
Max Gust Speed -    
Visibility 6.3 miles    
Events Snow    
Averages and records for this station are not official NWS values.
T = Trace of Precipitation, MM = Missing Value Source: Averaged Metar Reports

Daily Weather History Graph

Daily Weather History Graph

Search for Another Location

Airport or City:

Trip Planner

Search our weather history database for the weather conditions in past years. The results will help you decide how hot, cold, wet, or windy it might be!

Date:

Astronomy

Feb. 10, 2013 Rise Set
Actual Time 7:22 AM CET 5:12 PM CET
Civil Twilight 6:48 AM CET 5:46 PM CET
Nautical Twilight 6:10 AM CET 6:24 PM CET
Astronomical Twilight 5:32 AM CET 7:02 PM CET
Moon 6:55 AM CET (2/10) 5:52 PM CET (2/10)
Length of Visible Light 10h 58m
Length of Day
9h 50m
New Moon, 0% of the Moon is Illuminated
Feb 10
New Moon
Feb 17
First Quarter
Feb 25
Full
Mar 4
Last Quarter
Mar 11
New

Hourly Weather History & Observations

Time (CET) Temp. Windchill Dew Point Humidity Pressure Visibility Wind Dir Wind Speed Gust Speed Precip Events Conditions
12:00 AM 26.6 °F 22.6 °F 21.2 °F 80% 30.01 in 6.2 mi WNW 3.5 mph - N/A   Mostly Cloudy
12:30 AM 26.6 °F - 21.2 °F 80% 30.01 in 6.2 mi West 2.3 mph - N/A   Mostly Cloudy
1:00 AM 26 °F - 21 °F 74% 30.09 in 7 mi WNW 2.2 mph - -   Mostly Cloudy
1:00 AM 26.6 °F - 21.2 °F 80% 30.01 in 6.2 mi WNW 2.3 mph - N/A   Mostly Cloudy
1:30 AM 26.6 °F 21.2 °F 23.0 °F 86% 30.01 in 6.2 mi NW 4.6 mph - N/A   Mostly Cloudy
1:49 AM 26.6 °F 20.0 °F 21.2 °F 80% 30.01 in 5.6 mi NW 5.8 mph - N/A Snow Light Snow
2:00 AM 26.6 °F 20.0 °F 21.2 °F 80% 30.01 in 5.6 mi NW 5.8 mph - N/A Snow Light Snow
2:30 AM 26.6 °F 21.2 °F 23.0 °F 86% 30.01 in 5.0 mi WNW 4.6 mph - N/A Snow Light Snow
3:00 AM 26.6 °F - 23.0 °F 86% 29.98 in 5.0 mi WNW 2.3 mph - N/A Snow Light Snow
3:30 AM 24.8 °F - 23.0 °F 93% 29.98 in 4.3 mi WNW 2.3 mph - N/A Snow Light Snow
4:00 AM 24.8 °F - 23.0 °F 93% 29.98 in 5.0 mi NW 2.3 mph - N/A Snow Light Snow
4:30 AM 24.8 °F - 23.0 °F 93% 29.98 in 5.0 mi NW 2.3 mph - N/A Snow Light Snow
5:00 AM 24.8 °F - 23.0 °F 93% 29.98 in 5.6 mi NW 2.3 mph - N/A   Overcast
5:30 AM 24.8 °F 17.9 °F 23.0 °F 93% 29.98 in 6.2 mi WNW 5.8 mph - N/A   Overcast
6:00 AM 24.8 °F 19.1 °F 21.2 °F 86% 29.98 in 6.2 mi NW 4.6 mph - N/A   Overcast
6:30 AM 24.8 °F 19.1 °F 21.2 °F 86% 29.98 in 6.2 mi NNW 4.6 mph - N/A   Mostly Cloudy
7:00 AM 22 °F - 19 °F 83% 30.08 in 7 mi North 4.5 mph - -   Partly Cloudy
7:00 AM 23.0 °F - 19.4 °F 86% 29.98 in 6.2 mi North 2.3 mph - N/A   Partly Cloudy
7:30 AM 21.2 °F 13.6 °F 19.4 °F 93% 29.98 in 6.2 mi NNE 5.8 mph - N/A   Partly Cloudy
8:00 AM 23.0 °F 15.8 °F 19.4 °F 86% 29.98 in 6.2 mi North 5.8 mph - N/A   Partly Cloudy
8:30 AM 23.0 °F 18.4 °F 19.4 °F 86% 29.98 in - North 3.5 mph - N/A   Clear
9:00 AM 24.8 °F - 21.2 °F 86% 29.98 in - Variable 1.2 mph - N/A   Clear
9:30 AM 24.8 °F - 19.4 °F 80% 30.01 in 6.2 mi NNE 2.3 mph - N/A   Partly Cloudy
10:00 AM 26.6 °F 21.2 °F 21.2 °F 80% 29.98 in 6.2 mi North 4.6 mph - N/A   Partly Cloudy
10:30 AM 26.6 °F 21.2 °F 21.2 °F 80% 29.98 in 6.2 mi North 4.6 mph - N/A   Partly Cloudy
11:00 AM 28.4 °F 23.3 °F 21.2 °F 74% 29.98 in 6.2 mi North 4.6 mph - N/A   Scattered Clouds
11:30 AM 28.4 °F 23.3 °F 19.4 °F 69% 29.98 in 6.2 mi NW 4.6 mph - N/A   Scattered Clouds
12:00 PM 28.4 °F - 21.2 °F 74% 29.98 in 6.2 mi North 2.3 mph - N/A   Mostly Cloudy
12:30 PM 26.6 °F 21.2 °F 19.4 °F 74% 29.98 in 6.2 mi WNW 4.6 mph - N/A   Mostly Cloudy
1:00 PM 29 °F - 19 °F 54% 30.04 in 19 mi WNW 4.5 mph - -   Mostly Cloudy
1:00 PM 28.4 °F - 19.4 °F 69% 29.95 in 6.2 mi North 2.3 mph - N/A   Mostly Cloudy
1:30 PM 28.4 °F 24.6 °F 19.4 °F 69% 29.95 in 6.2 mi NW 3.5 mph - N/A   Scattered Clouds
2:00 PM 30.2 °F 26.7 °F 17.6 °F 60% 29.95 in 6.2 mi NW 3.5 mph - N/A   Scattered Clouds
2:30 PM 30.2 °F 24.3 °F 19.4 °F 64% 29.95 in 6.2 mi North 5.8 mph - N/A   Scattered Clouds
3:00 PM 30.2 °F 26.7 °F 17.6 °F 60% 29.92 in 6.2 mi NNW 3.5 mph - N/A   Scattered Clouds
3:30 PM 28.4 °F - 17.6 °F 64% 29.92 in 6.2 mi NNW 2.3 mph - N/A   Scattered Clouds
4:00 PM 30.2 °F 26.7 °F 17.6 °F 60% 29.92 in 6.2 mi North 3.5 mph - N/A   Mostly Cloudy
4:30 PM 30.2 °F 24.3 °F 19.4 °F 64% 29.92 in 6.2 mi NE 5.8 mph - N/A   Mostly Cloudy
5:00 PM 28.4 °F 23.3 °F 17.6 °F 64% 29.92 in 6.2 mi East 4.6 mph - N/A   Mostly Cloudy
5:30 PM 28.4 °F 22.2 °F 19.4 °F 69% 29.92 in 6.2 mi ENE 5.8 mph - N/A   Mostly Cloudy
6:00 PM 28.4 °F 21.2 °F 19.4 °F 69% 29.89 in 6.2 mi ENE 6.9 mph - N/A   Mostly Cloudy
6:30 PM 26.6 °F 20.0 °F 19.4 °F 74% 29.89 in 6.2 mi East 5.8 mph - N/A   Mostly Cloudy
7:00 PM 27 °F - 18 °F 59% 29.99 in 25 mi East 6.7 mph - -   Mostly Cloudy
7:00 PM 26.6 °F 21.2 °F 19.4 °F 74% 29.89 in 6.2 mi ESE 4.6 mph - N/A   Mostly Cloudy
7:30 PM 26.6 °F 20.0 °F 19.4 °F 74% 29.89 in 6.2 mi ENE 5.8 mph - N/A   Mostly Cloudy
8:00 PM 26.6 °F 21.2 °F 21.2 °F 80% 29.89 in 6.2 mi East 4.6 mph - N/A   Mostly Cloudy
8:30 PM 26.6 °F 18.2 °F 19.4 °F 74% 29.89 in 6.2 mi East 8.1 mph - N/A   Mostly Cloudy
9:00 PM 26.6 °F 18.2 °F 17.6 °F 69% 29.89 in 6.2 mi East 8.1 mph - N/A   Mostly Cloudy
9:30 PM 26.6 °F 18.2 °F 17.6 °F 69% 29.89 in 6.2 mi East 8.1 mph - N/A   Overcast
10:00 PM 26.6 °F 19.1 °F 15.8 °F 64% 29.86 in 6.2 mi ESE 6.9 mph - N/A   Overcast
10:30 PM 26.6 °F 18.2 °F 17.6 °F 69% 29.86 in 6.2 mi East 8.1 mph - N/A   Overcast
11:00 PM 26.6 °F 17.5 °F 19.4 °F 74% 29.86 in 6.2 mi East 9.2 mph - N/A   Overcast
11:30 PM 26.6 °F 16.2 °F 17.6 °F 69% 29.86 in 6.2 mi East 11.5 mph - N/A   Overcast